Broome, Australia

10:18 AM AWST on May 24, 2018 (GMT +0800)
Broome International

Weather History for YBRM - May, 2018

Change the Weather History Date:

Thursday, May 17, 2018

  Actual Average Record
Temperature  
Mean Temperature 68 °F -  
Max Temperature 82 °F 87 °F - ()
Min Temperature 55 °F 62 °F - ()
Cooling Degree Days 4    
Growing Degree Days 18 (Base 50)    
Moisture  
Dew Point 34 °F    
Average Humidity 27    
Maximum Humidity 54    
Minimum Humidity 5    
Precipitation  
Precipitation 0.00 in 0.03 in - ()
Sea Level Pressure  
Sea Level Pressure 30.01 in    
Wind  
Wind Speed 13 mph ()    
Max Wind Speed 25 mph    
Max Gust Speed 36 mph    
Visibility 6.2 miles    
Events      
T = Trace of Precipitation, MM = Missing Value Source: Averaged Metar Reports

Daily Weather History Graph

Daily Weather History Graph

Search for Another Location

Airport or City:

Astronomy

May. 17, 2018 Rise Set
Actual Time 6:09 AM AWST 5:25 PM AWST
Civil Twilight 5:46 AM AWST 5:48 PM AWST
Nautical Twilight 5:20 AM AWST 6:14 PM AWST
Astronomical Twilight 4:54 AM AWST 6:40 PM AWST
Moon 7:41 AM AWST (5/17) 7:15 PM AWST (5/17)
Length of Visible Light 12h 01m
Length of Day
11h 15m
Waxing Crescent, 4% of the Moon is Illuminated
May 17
Waxing Crescent
May 22
First Quarter
May 29
Full
Jun 7
Last Quarter
Jun 14
New

Hourly Weather History & Observations

Time (AWST) Temp. Dew Point Humidity Pressure Visibility Wind Dir Wind Speed Gust Speed Precip Events Conditions
12:00 AM 71 °F 36 °F 18% 30.05 in - ESE 16.1 mph - -   Clear
12:00 AM 71.6 °F 37.4 °F 29% 30.04 in 6.2 mi ESE 16.1 mph - N/A   Unknown
12:30 AM 69.8 °F 39.2 °F 33% 30.04 in 6.2 mi ESE 13.8 mph - N/A   Unknown
1:00 AM 69.8 °F 35.6 °F 28% 30.04 in 6.2 mi ESE 16.1 mph - N/A   Unknown
1:30 AM 69.8 °F 37.4 °F 31% 30.01 in 6.2 mi ESE 17.3 mph - N/A   Unknown
2:00 AM 68 °F 37 °F 21% 30.02 in - ESE 13.8 mph - -  
2:00 AM 68.0 °F 37.4 °F 33% 30.01 in 6.2 mi ESE 13.8 mph - N/A   Unknown
2:30 AM 66.2 °F 37.4 °F 35% 30.01 in 6.2 mi ESE 12.7 mph - N/A   Unknown
3:00 AM 65 °F 39 °F 26% 30.02 in - ESE 12.7 mph - -   Clear
3:00 AM 64.4 °F 39.2 °F 40% 30.01 in 6.2 mi ESE 12.7 mph - N/A   Unknown
3:30 AM 64.4 °F 39.2 °F 40% 30.01 in 6.2 mi ESE 13.8 mph - N/A   Unknown
4:00 AM 62.6 °F 39.2 °F 42% 30.01 in 6.2 mi ESE 12.7 mph - N/A   Unknown
5:00 AM 59 °F 39 °F 35% 30.02 in - ESE 9.2 mph - -  
5:00 AM 59.0 °F 39.2 °F 48% 30.01 in 6.2 mi ESE 9.2 mph - N/A   Unknown
6:00 AM 58 °F 33 °F 27% 30.04 in - ESE 10.4 mph - -   Clear
6:00 AM 57.2 °F 33.8 °F 41% 30.04 in 6.2 mi ESE 10.4 mph - N/A   Unknown
6:30 AM 57.2 °F 32.0 °F 38% 30.04 in 6.2 mi ESE 9.2 mph - N/A   Unknown
7:00 AM 59.0 °F 33.8 °F 39% 30.04 in 6.2 mi ESE 11.5 mph - N/A   Unknown
7:30 AM 60.8 °F 35.6 °F 39% 30.04 in - SE 12.7 mph - N/A   Clear
8:00 AM 63 °F 35 °F 24% 30.06 in - ESE 12.7 mph - -  
8:00 AM 62.6 °F 35.6 °F 37% 30.06 in - ESE 12.7 mph - N/A   Clear
9:00 AM 69 °F 32 °F 15% 30.06 in - ESE 15.0 mph - -   Clear
9:00 AM 68.0 °F 32.0 °F 26% 30.04 in - ESE 15.0 mph - N/A   Clear
9:58 AM 77.0 °F 19.4 °F 12% 30.04 in - East 19.6 mph 31.1 mph N/A   Clear
10:00 AM 77.0 °F 19.4 °F 12% 30.04 in - East 20.7 mph 32.2 mph N/A   Clear
10:33 AM 77.0 °F 19.4 °F 12% 30.01 in - East 24.2 mph 35.7 mph N/A   Clear
11:00 AM 79 °F 20 °F 5% 30.02 in - East 25.3 mph - -  
11:00 AM 78.8 °F 19.4 °F 11% 30.01 in - East 25.3 mph - N/A   Clear
11:30 AM 78.8 °F 19.4 °F 11% 30.01 in - East 24.2 mph - N/A   Clear
11:47 AM 80.6 °F 23.0 °F 12% 29.98 in 6.2 mi East 20.7 mph 32.2 mph N/A   Unknown
12:00 PM 80 °F 21 °F 5% 29.99 in - ESE 21.9 mph - -   Clear
12:02 PM 78.8 °F 24.8 °F 14% 29.98 in 6.2 mi ESE 20.7 mph 32.2 mph N/A   Unknown
12:30 PM 80.6 °F 19.4 °F 10% 29.98 in - ESE 19.6 mph - N/A   Clear
1:00 PM 80.6 °F 23.0 °F 12% 29.95 in - ESE 17.3 mph - N/A   Clear
1:30 PM 82.4 °F 23.0 °F 11% 29.95 in - ESE 18.4 mph - N/A   Clear
2:00 PM 82 °F 33 °F 9% 29.95 in - ESE 16.1 mph - -  
2:00 PM 82.4 °F 33.8 °F 17% 29.95 in - ESE 16.1 mph - N/A   Clear
2:30 PM 80.6 °F 21.2 °F 11% 29.95 in - ESE 16.1 mph - N/A   Clear
3:00 PM 81 °F 31 °F 8% 29.95 in - ESE 17.3 mph - -   Clear
3:00 PM 80.6 °F 30.2 °F 16% 29.95 in - ESE 17.3 mph - N/A   Clear
3:30 PM 80.6 °F 32.0 °F 17% 29.95 in - ESE 15.0 mph - N/A   Clear
4:00 PM 78.8 °F 28.4 °F 16% 29.95 in 6.2 mi ESE 15.0 mph - N/A   Unknown
4:30 PM 77.0 °F 33.8 °F 21% 29.95 in - ESE 12.7 mph - N/A   Unknown
5:00 PM 75 °F 37 °F 15% 29.97 in - ESE 11.5 mph - -  
5:00 PM 75.2 °F 37.4 °F 25% 29.98 in - ESE 11.5 mph - N/A   Unknown
5:30 PM 73.4 °F 37.4 °F 27% 29.98 in 6.2 mi ESE 10.4 mph - N/A   Unknown
6:00 PM 71.6 °F 37.4 °F 29% 29.98 in 6.2 mi ESE 9.2 mph - N/A   Unknown
6:30 PM 69.8 °F 39.2 °F 33% 30.01 in 6.2 mi SE 8.1 mph - N/A   Unknown
7:00 PM 69.8 °F 37.4 °F 31% 30.01 in 6.2 mi SE 8.1 mph - N/A   Unknown
7:30 PM 68.0 °F 39.2 °F 35% 30.04 in 6.2 mi SE 8.1 mph - N/A   Unknown
8:00 PM 63 °F 43 °F 36% 30.04 in - ESE 5.8 mph - -  
8:00 PM 62.6 °F 42.8 °F 48% 30.04 in 6.2 mi ESE 5.8 mph - N/A   Unknown
8:30 PM 66.2 °F 42.8 °F 43% 30.04 in 6.2 mi SE 6.9 mph - N/A   Unknown
9:00 PM 65 °F 45 °F 37% 30.04 in - ESE 8.1 mph - -   Clear
9:00 PM 64.4 °F 44.6 °F 49% 30.04 in 6.2 mi ESE 8.1 mph - N/A   Unknown
9:22 PM 55.4 °F 39.2 °F 54% 30.04 in 6.2 mi NE 6.9 mph - N/A   Unknown
9:30 PM 55.4 °F 39.2 °F 54% 30.04 in 6.2 mi ENE 5.8 mph - N/A   Unknown
10:00 PM 57.2 °F 39.2 °F 51% 30.04 in 6.2 mi ENE 4.6 mph - N/A   Unknown
10:30 PM 57.2 °F 39.2 °F 51% 30.04 in 6.2 mi East 5.8 mph - N/A   Unknown
10:50 PM 66.2 °F 37.4 °F 35% 30.04 in 6.2 mi ESE 12.7 mph - N/A   Unknown
11:00 PM 68 °F 39 °F 23% 30.04 in - ESE 12.7 mph - -  
11:00 PM 68.0 °F 39.2 °F 35% 30.04 in 6.2 mi ESE 12.7 mph - N/A   Unknown
11:30 PM 68.0 °F 37.4 °F 33% 30.04 in 6.2 mi ESE 15.0 mph - N/A   Unknown